Time,TemperatureF,DewpointF,PressureIn,WindDirection,WindDirectionDegrees,WindSpeedMPH,WindSpeedGustMPH,Humidity,HourlyPrecipIn,Conditions,Clouds,dailyrainin,SoftwareType,DateUTC
2013-08-05 00:02:00,69.9,64.2,30.02,NNE,21,0.0,0.0,82,0.00,CLR,,0.00,WeatherDisplay:10.37,2013-08-05 05:02:00,
2013-08-05 00:07:00,69.9,64.5,30.03,NNE,21,0.0,0.0,83,0.00,CLR,,0.00,WeatherDisplay:10.37,2013-08-05 05:07:00,
2013-08-05 00:12:00,69.9,64.2,30.03,NNE,21,0.0,0.0,82,0.00,CLR,,0.00,WeatherDisplay:10.37,2013-08-05 05:12:00,
2013-08-05 00:17:00,69.8,64.4,30.03,NNE,21,0.0,0.0,83,0.00,CLR,,0.00,WeatherDisplay:10.37,2013-08-05 05:17:00,
2013-08-05 00:22:00,69.8,64.7,30.03,NNE,21,0.0,0.0,84,0.00,CLR,,0.00,WeatherDisplay:10.37,2013-08-05 05:22:00,
2013-08-05 00:27:00,69.6,63.9,30.02,NNE,21,0.0,0.0,82,0.00,CLR,,0.00,WeatherDisplay:10.37,2013-08-05 05:27:00,
2013-08-05 00:32:00,69.5,63.8,30.02,NNE,22,0.0,0.0,82,0.00,CLR,,0.00,WeatherDisplay:10.37,2013-08-05 05:32:00,
2013-08-05 00:37:00,69.5,63.8,30.02,NNE,22,0.0,0.0,82,0.00,CLR,,0.00,WeatherDisplay:10.37,2013-08-05 05:37:00,
2013-08-05 00:42:00,69.4,63.3,30.02,NNE,22,0.0,0.0,81,0.00,CLR,,0.00,WeatherDisplay:10.37,2013-08-05 05:42:00,
2013-08-05 00:47:00,69.4,63.3,30.02,NNE,22,0.0,0.0,81,0.00,CLR,,0.00,WeatherDisplay:10.37,2013-08-05 05:47:00,
2013-08-05 00:52:00,69.5,63.1,30.02,NNE,22,0.0,0.0,80,0.00,CLR,,0.00,WeatherDisplay:10.37,2013-08-05 05:52:00,
2013-08-05 00:57:00,69.5,63.4,30.02,NNE,22,0.0,0.0,81,0.00,CLR,,0.00,WeatherDisplay:10.37,2013-08-05 05:57:00,
2013-08-05 01:02:00,69.5,63.1,30.02,NNE,22,0.0,0.0,80,0.00,CLR,,0.00,WeatherDisplay:10.37,2013-08-05 06:02:00,
2013-08-05 01:07:00,69.5,63.1,30.02,NNE,22,0.0,0.0,80,0.00,CLR,,0.00,WeatherDisplay:10.37,2013-08-05 06:07:00,
2013-08-05 01:12:00,69.5,63.1,30.02,NNE,22,0.0,0.0,80,0.00,CLR,,0.00,WeatherDisplay:10.37,2013-08-05 06:12:00,
2013-08-05 01:17:00,69.5,63.4,30.02,NNE,22,0.0,0.0,81,0.00,CLR,,0.00,WeatherDisplay:10.37,2013-08-05 06:17:00,
2013-08-05 01:22:00,69.4,63.7,30.02,NNE,22,0.0,0.0,82,0.00,CLR,,0.00,WeatherDisplay:10.37,2013-08-05 06:22:00,
2013-08-05 01:27:00,69.2,63.5,30.02,NNE,22,0.0,0.0,82,0.00,CLR,,0.00,WeatherDisplay:10.37,2013-08-05 06:27:00,
2013-08-05 01:32:00,69.1,63.0,30.02,NNE,22,0.0,0.0,81,0.00,CLR,,0.00,WeatherDisplay:10.37,2013-08-05 06:32:00,
2013-08-05 01:37:00,69.1,63.0,30.03,NNE,22,0.0,0.0,81,0.00,CLR,,0.00,WeatherDisplay:10.37,2013-08-05 06:37:00,
2013-08-05 01:42:00,69.2,63.8,30.03,NNE,22,0.0,0.0,83,0.00,CLR,,0.00,WeatherDisplay:10.37,2013-08-05 06:42:00,
2013-08-05 01:47:00,69.2,63.8,30.02,NNE,22,0.0,0.0,83,0.00,CLR,,0.00,WeatherDisplay:10.37,2013-08-05 06:47:00,
2013-08-05 01:52:00,68.9,63.9,30.02,NNE,22,0.0,0.0,84,0.00,CLR,,0.00,WeatherDisplay:10.37,2013-08-05 06:52:00,
2013-08-05 01:57:00,68.7,64.0,30.02,NNE,22,0.0,0.0,85,0.00,CLR,,0.00,WeatherDisplay:10.37,2013-08-05 06:57:00,
2013-08-05 02:03:00,68.5,63.8,30.01,NNE,22,0.0,0.0,85,0.00,CLR,,0.00,WeatherDisplay:10.37,2013-08-05 07:03:00,
2013-08-05 02:08:00,68.4,63.4,30.01,NE,45,0.0,0.0,84,0.00,CLR,,0.00,WeatherDisplay:10.37,2013-08-05 07:08:00,
2013-08-05 02:13:00,68.4,63.7,30.01,NE,45,0.0,0.0,85,0.00,CLR,,0.00,WeatherDisplay:10.37,2013-08-05 07:13:00,
2013-08-05 02:17:00,68.4,63.7,30.01,NE,45,0.0,0.0,85,0.00,CLR,,0.00,WeatherDisplay:10.37,2013-08-05 07:17:00,
2013-08-05 02:23:00,68.3,63.3,30.01,NE,45,0.0,0.0,84,0.00,CLR,,0.00,WeatherDisplay:10.37,2013-08-05 07:23:00,
2013-08-05 02:27:00,68.4,63.4,30.01,NE,45,0.0,0.0,84,0.00,CLR,,0.00,WeatherDisplay:10.37,2013-08-05 07:27:00,
2013-08-05 02:33:00,68.5,63.5,30.01,NE,45,0.0,0.0,84,0.00,CLR,,0.00,WeatherDisplay:10.37,2013-08-05 07:33:00,
2013-08-05 02:37:00,68.5,63.5,30.01,NE,45,0.0,0.0,84,0.00,CLR,,0.00,WeatherDisplay:10.37,2013-08-05 07:37:00,
2013-08-05 02:42:00,68.5,63.8,30.01,NE,45,0.0,0.0,85,0.00,CLR,,0.00,WeatherDisplay:10.37,2013-08-05 07:42:00,
2013-08-05 02:48:00,68.3,63.3,30.01,NE,45,0.0,0.0,84,0.00,CLR,,0.00,WeatherDisplay:10.37,2013-08-05 07:48:00,
2013-08-05 02:53:00,68.1,63.1,30.02,NE,45,0.0,0.0,84,0.00,CLR,,0.00,WeatherDisplay:10.37,2013-08-05 07:53:00,
2013-08-05 02:58:00,68.3,63.9,30.02,NE,45,0.0,0.0,86,0.00,CLR,,0.00,WeatherDisplay:10.37,2013-08-05 07:58:00,
2013-08-05 03:03:00,68.3,64.3,30.02,NE,45,0.0,0.0,87,0.01,RA,,0.01,WeatherDisplay:10.37,2013-08-05 08:03:00,
2013-08-05 03:08:00,68.3,64.3,30.02,NE,46,0.0,0.0,87,0.01,RA,,0.01,WeatherDisplay:10.37,2013-08-05 08:08:00,
2013-08-05 03:13:00,68.2,64.5,30.02,NE,45,0.0,0.0,88,0.02,RA,,0.02,WeatherDisplay:10.37,2013-08-05 08:13:00,
2013-08-05 03:18:00,67.9,63.9,30.02,NE,45,0.0,0.0,87,0.02,RA,,0.02,WeatherDisplay:10.37,2013-08-05 08:18:00,
2013-08-05 03:23:00,67.7,64.0,30.02,NE,45,0.0,0.0,88,0.02,,,0.02,WeatherDisplay:10.37,2013-08-05 08:23:00,
2013-08-05 03:28:00,67.5,64.1,30.01,NE,46,0.0,0.0,89,0.02,CLR,,0.02,WeatherDisplay:10.37,2013-08-05 08:28:00,
2013-08-05 03:33:00,67.3,63.9,30.01,NE,45,0.0,0.0,89,0.02,CLR,,0.02,WeatherDisplay:10.37,2013-08-05 08:33:00,
2013-08-05 03:38:00,67.1,64.1,30.01,NE,45,0.0,0.0,90,0.02,CLR,,0.02,WeatherDisplay:10.37,2013-08-05 08:38:00,
2013-08-05 03:43:00,66.9,63.9,30.00,NE,45,0.0,0.0,90,0.02,CLR,,0.02,WeatherDisplay:10.37,2013-08-05 08:43:00,
2013-08-05 03:48:00,66.8,63.8,30.01,NE,46,0.0,0.0,90,0.02,CLR,,0.02,WeatherDisplay:10.37,2013-08-05 08:48:00,
2013-08-05 03:53:00,66.7,63.7,30.00,NE,45,0.0,0.0,90,0.02,CLR,,0.02,WeatherDisplay:10.37,2013-08-05 08:53:00,
2013-08-05 03:58:00,66.5,63.8,30.00,NE,45,0.0,0.0,91,0.02,CLR,,0.02,WeatherDisplay:10.37,2013-08-05 08:58:00,
2013-08-05 04:03:00,66.4,63.7,30.00,NE,45,0.0,0.0,91,0.01,CLR,,0.02,WeatherDisplay:10.37,2013-08-05 09:03:00,
2013-08-05 04:08:00,66.3,63.6,30.00,NE,45,0.0,0.0,91,0.01,CLR,,0.02,WeatherDisplay:10.37,2013-08-05 09:08:00,
2013-08-05 04:13:00,66.1,63.7,30.00,NE,45,0.0,0.0,92,0.00,CLR,,0.02,WeatherDisplay:10.37,2013-08-05 09:13:00,
2013-08-05 04:19:00,66.1,63.7,30.00,NE,45,0.0,0.0,92,0.00,CLR,,0.02,WeatherDisplay:10.37,2013-08-05 09:19:00,
2013-08-05 04:24:00,66.1,63.7,30.00,NE,45,0.0,0.0,92,0.00,CLR,,0.02,WeatherDisplay:10.37,2013-08-05 09:24:00,
2013-08-05 04:29:00,66.0,63.6,30.00,NE,45,0.0,0.0,92,0.00,CLR,,0.02,WeatherDisplay:10.37,2013-08-05 09:29:00,
2013-08-05 04:34:00,65.9,63.5,30.00,NE,45,0.0,0.0,92,0.00,CLR,,0.02,WeatherDisplay:10.37,2013-08-05 09:34:00,
2013-08-05 04:39:00,65.9,63.8,30.00,NE,45,0.0,0.0,93,0.00,CLR,,0.02,WeatherDisplay:10.37,2013-08-05 09:39:00,
2013-08-05 04:45:00,65.9,63.8,30.00,NE,45,0.0,0.0,93,0.00,CLR,,0.02,WeatherDisplay:10.37,2013-08-05 09:45:00,
2013-08-05 04:50:00,65.7,63.6,29.99,NE,45,0.0,0.0,93,0.00,CLR,,0.02,WeatherDisplay:10.37,2013-08-05 09:50:00,
2013-08-05 04:55:00,65.6,63.5,29.99,NE,45,0.0,0.0,93,0.00,CLR,,0.02,WeatherDisplay:10.37,2013-08-05 09:55:00,
2013-08-05 05:00:00,65.5,63.4,29.99,NE,45,0.0,0.0,93,0.00,CLR,,0.02,WeatherDisplay:10.37,2013-08-05 10:00:00,
2013-08-05 05:05:00,65.4,63.3,29.99,NE,45,0.0,0.0,93,0.00,CLR,,0.02,WeatherDisplay:10.37,2013-08-05 10:05:00,
2013-08-05 05:10:00,65.4,63.3,29.99,NE,45,0.0,0.0,93,0.00,CLR,,0.02,WeatherDisplay:10.37,2013-08-05 10:10:00,
2013-08-05 05:15:00,65.6,63.2,29.99,NE,45,0.0,0.0,92,0.00,CLR,,0.02,WeatherDisplay:10.37,2013-08-05 10:15:00,
2013-08-05 05:20:00,65.7,63.3,29.99,NE,45,0.0,0.0,92,0.00,CLR,,0.02,WeatherDisplay:10.37,2013-08-05 10:20:00,
2013-08-05 05:25:00,65.8,63.4,29.99,NE,45,0.0,0.0,92,0.00,CLR,,0.02,WeatherDisplay:10.37,2013-08-05 10:25:00,
2013-08-05 05:30:00,66.0,63.6,29.99,NE,45,0.0,0.0,92,0.00,CLR,,0.02,WeatherDisplay:10.37,2013-08-05 10:30:00,
2013-08-05 05:36:00,66.0,63.6,29.99,NE,45,0.0,0.0,92,0.00,CLR,,0.02,WeatherDisplay:10.37,2013-08-05 10:36:00,
2013-08-05 05:41:00,66.0,63.6,29.99,NE,45,0.0,0.0,92,0.00,CLR,,0.02,WeatherDisplay:10.37,2013-08-05 10:41:00,
2013-08-05 05:46:00,66.0,63.6,30.00,NE,45,0.0,0.0,92,0.00,CLR,,0.02,WeatherDisplay:10.37,2013-08-05 10:46:00,
2013-08-05 05:51:00,65.9,63.5,29.99,NE,45,0.0,0.0,92,0.00,CLR,,0.02,WeatherDisplay:10.37,2013-08-05 10:51:00,
2013-08-05 05:56:00,65.9,63.5,29.99,ENE,65,0.0,0.0,92,0.00,CLR,,0.02,WeatherDisplay:10.37,2013-08-05 10:56:00,
2013-08-05 06:01:00,65.8,63.4,30.00,East,80,0.0,0.0,92,0.00,CLR,,0.02,WeatherDisplay:10.37,2013-08-05 11:01:00,
2013-08-05 06:07:00,65.8,63.7,30.00,East,80,0.0,0.0,93,0.00,CLR,,0.02,WeatherDisplay:10.37,2013-08-05 11:07:00,
2013-08-05 06:12:00,65.9,63.8,30.00,East,80,0.0,0.0,93,0.00,CLR,,0.02,WeatherDisplay:10.37,2013-08-05 11:12:00,
2013-08-05 06:17:00,65.9,63.8,30.01,East,80,0.0,0.0,93,0.00,CLR,,0.02,WeatherDisplay:10.37,2013-08-05 11:17:00,
2013-08-05 06:22:00,65.8,63.7,30.01,East,80,0.0,0.0,93,0.00,CLR,,0.02,WeatherDisplay:10.37,2013-08-05 11:22:00,
2013-08-05 06:27:00,65.8,63.7,30.00,East,80,0.0,0.0,93,0.00,CLR,,0.02,WeatherDisplay:10.37,2013-08-05 11:27:00,
2013-08-05 06:32:00,66.0,63.9,30.01,East,80,0.0,0.0,93,0.00,CLR,,0.02,WeatherDisplay:10.37,2013-08-05 11:32:00,
2013-08-05 06:37:00,66.1,64.0,30.01,East,80,0.0,0.0,93,0.00,CLR,,0.02,WeatherDisplay:10.37,2013-08-05 11:37:00,
2013-08-05 06:42:00,66.2,64.1,30.01,East,80,0.0,0.0,93,0.00,CLR,,0.02,WeatherDisplay:10.37,2013-08-05 11:42:00,
2013-08-05 06:48:00,66.3,64.2,30.01,East,80,0.0,0.0,93,0.00,CLR,,0.02,WeatherDisplay:10.37,2013-08-05 11:48:00,
2013-08-05 06:52:00,66.3,64.2,30.01,East,80,0.0,0.0,93,0.00,CLR,,0.02,WeatherDisplay:10.37,2013-08-05 11:52:00,
2013-08-05 06:58:00,66.4,64.3,30.01,East,80,0.0,0.0,93,0.00,CLR,,0.02,WeatherDisplay:10.37,2013-08-05 11:58:00,
2013-08-05 07:03:00,66.5,64.4,30.01,East,80,0.0,0.0,93,0.00,CLR,,0.02,WeatherDisplay:10.37,2013-08-05 12:03:00,
2013-08-05 07:08:00,66.7,64.6,30.01,East,80,0.0,0.0,93,0.00,CLR,,0.02,WeatherDisplay:10.37,2013-08-05 12:08:00,
2013-08-05 07:12:00,66.9,64.5,30.01,East,80,0.0,0.0,92,0.00,CLR,,0.02,WeatherDisplay:10.37,2013-08-05 12:12:00,
2013-08-05 07:18:00,67.1,64.7,30.01,East,80,0.0,0.0,92,0.00,CLR,,0.02,WeatherDisplay:10.37,2013-08-05 12:18:00,
2013-08-05 07:23:00,67.2,64.5,30.01,East,80,0.0,0.0,91,0.00,CLR,,0.02,WeatherDisplay:10.37,2013-08-05 12:23:00,
2013-08-05 07:28:00,67.4,64.7,30.01,East,80,0.0,0.0,91,0.00,CLR,,0.02,WeatherDisplay:10.37,2013-08-05 12:28:00,
2013-08-05 07:33:00,67.6,64.6,30.01,East,80,0.0,0.0,90,0.00,CLR,,0.02,WeatherDisplay:10.37,2013-08-05 12:33:00,
2013-08-05 07:39:00,67.7,64.7,30.01,ESE,111,0.0,0.0,90,0.00,CLR,,0.02,WeatherDisplay:10.37,2013-08-05 12:39:00,
2013-08-05 07:44:00,68.0,65.0,30.01,ESE,110,0.0,0.0,90,0.00,CLR,,0.02,WeatherDisplay:10.37,2013-08-05 12:44:00,
2013-08-05 07:49:00,68.3,65.3,30.01,ESE,110,0.0,0.0,90,0.00,CLR,,0.02,WeatherDisplay:10.37,2013-08-05 12:49:00,
2013-08-05 07:54:00,68.5,65.4,30.01,ESE,110,0.0,0.0,90,0.00,CLR,,0.02,WeatherDisplay:10.37,2013-08-05 12:54:00,
2013-08-05 07:59:00,68.5,65.1,30.01,ESE,110,0.0,0.0,89,0.00,CLR,,0.02,WeatherDisplay:10.37,2013-08-05 12:59:00,
2013-08-05 08:04:00,68.7,65.3,30.01,ESE,110,0.0,0.0,89,0.00,CLR,,0.02,WeatherDisplay:10.37,2013-08-05 13:04:00,
2013-08-05 08:09:00,69.0,65.9,30.01,ESE,110,0.0,0.0,90,0.00,CLR,,0.02,WeatherDisplay:10.37,2013-08-05 13:09:00,
2013-08-05 08:14:00,69.2,65.5,30.01,ESE,112,0.0,0.0,88,0.00,CLR,,0.02,WeatherDisplay:10.37,2013-08-05 13:14:00,
2013-08-05 08:19:00,69.4,65.0,30.01,ESE,103,0.0,0.0,86,0.00,CLR,,0.02,WeatherDisplay:10.37,2013-08-05 13:19:00,
2013-08-05 08:24:00,69.9,65.2,30.00,East,89,0.0,0.0,85,0.00,CLR,,0.02,WeatherDisplay:10.37,2013-08-05 13:24:00,
2013-08-05 08:30:00,70.3,65.2,30.00,East,97,0.0,0.0,84,0.00,CLR,,0.02,WeatherDisplay:10.37,2013-08-05 13:30:00,
2013-08-05 08:35:00,70.6,65.5,30.00,ENE,78,0.0,0.0,84,0.00,CLR,,0.02,WeatherDisplay:10.37,2013-08-05 13:35:00,
2013-08-05 08:40:00,70.9,66.2,30.00,East,97,0.0,0.0,85,0.00,CLR,,0.02,WeatherDisplay:10.37,2013-08-05 13:40:00,
2013-08-05 08:45:00,71.0,65.6,30.00,SE,134,0.0,0.0,83,0.00,CLR,,0.02,WeatherDisplay:10.37,2013-08-05 13:45:00,
2013-08-05 08:50:00,71.1,66.0,30.00,SE,134,0.0,0.0,84,0.00,CLR,,0.02,WeatherDisplay:10.37,2013-08-05 13:50:00,
2013-08-05 08:55:00,71.1,65.0,30.00,ESE,103,0.0,0.0,81,0.00,CLR,,0.02,WeatherDisplay:10.37,2013-08-05 13:55:00,
2013-08-05 09:01:00,71.1,65.3,30.00,East,101,0.0,0.0,82,0.00,CLR,,0.02,WeatherDisplay:10.37,2013-08-05 14:01:00,
2013-08-05 09:05:00,71.1,65.0,29.99,ESE,121,0.0,0.0,81,0.00,CLR,,0.02,WeatherDisplay:10.37,2013-08-05 14:05:00,
2013-08-05 09:10:00,71.2,65.1,29.99,ESE,104,0.0,0.0,81,0.00,CLR,,0.02,WeatherDisplay:10.37,2013-08-05 14:10:00,
2013-08-05 09:16:00,71.3,65.5,30.00,ESE,112,0.0,0.0,82,0.00,CLR,,0.02,WeatherDisplay:10.37,2013-08-05 14:16:00,
2013-08-05 09:21:00,71.4,65.3,29.99,ESE,109,0.0,0.0,81,0.00,CLR,,0.02,WeatherDisplay:10.37,2013-08-05 14:21:00,
2013-08-05 09:25:00,71.6,65.8,30.00,ESE,109,0.0,0.0,82,0.00,CLR,,0.02,WeatherDisplay:10.37,2013-08-05 14:25:00,
2013-08-05 09:31:00,71.6,65.5,30.00,ESE,104,0.0,0.0,81,0.00,CLR,,0.02,WeatherDisplay:10.37,2013-08-05 14:31:00,
2013-08-05 09:36:00,71.8,65.7,30.00,ESE,111,0.0,0.0,81,0.00,CLR,,0.02,WeatherDisplay:10.37,2013-08-05 14:36:00,
2013-08-05 09:41:00,71.8,65.3,30.00,ESE,111,0.0,0.0,80,0.00,CLR,,0.02,WeatherDisplay:10.37,2013-08-05 14:41:00,
2013-08-05 09:46:00,72.0,65.8,30.00,ESE,111,0.0,0.0,81,0.00,CLR,,0.02,WeatherDisplay:10.37,2013-08-05 14:46:00,
2013-08-05 09:52:00,72.2,66.0,30.00,ESE,111,0.0,0.0,81,0.00,CLR,,0.02,WeatherDisplay:10.37,2013-08-05 14:52:00,
2013-08-05 09:57:00,72.3,65.8,30.00,ESE,107,0.0,0.0,80,0.00,CLR,,0.02,WeatherDisplay:10.37,2013-08-05 14:57:00,
2013-08-05 10:02:00,72.4,65.9,30.00,East,90,0.0,0.0,80,0.00,CLR,,0.02,WeatherDisplay:10.37,2013-08-05 15:02:00,
2013-08-05 10:07:00,72.6,66.4,30.00,East,90,0.0,0.0,81,0.00,CLR,,0.02,WeatherDisplay:10.37,2013-08-05 15:07:00,
2013-08-05 10:12:00,72.7,66.2,30.00,East,98,0.0,0.0,80,0.00,CLR,,0.02,WeatherDisplay:10.37,2013-08-05 15:12:00,
2013-08-05 10:17:00,72.6,66.1,30.00,ESE,113,0.0,0.0,80,0.00,CLR,,0.02,WeatherDisplay:10.37,2013-08-05 15:17:00,
2013-08-05 10:22:00,72.6,66.1,30.00,ESE,109,0.0,0.0,80,0.00,CLR,,0.02,WeatherDisplay:10.37,2013-08-05 15:22:00,
2013-08-05 10:27:00,72.6,65.7,30.00,ESE,104,0.0,0.0,79,0.00,CLR,,0.02,WeatherDisplay:10.37,2013-08-05 15:27:00,
2013-08-05 10:32:00,72.6,66.1,30.00,ESE,108,0.0,0.0,80,0.00,CLR,,0.02,WeatherDisplay:10.37,2013-08-05 15:32:00,
2013-08-05 10:37:00,72.7,66.5,30.00,ESE,109,0.0,0.0,81,0.00,CLR,,0.02,WeatherDisplay:10.37,2013-08-05 15:37:00,
2013-08-05 10:42:00,72.8,67.3,30.00,ESE,109,0.0,0.0,83,0.00,CLR,,0.02,WeatherDisplay:10.37,2013-08-05 15:42:00,
2013-08-05 10:47:00,72.8,67.7,30.01,ESE,109,0.0,0.0,84,0.00,CLR,,0.02,WeatherDisplay:10.37,2013-08-05 15:47:00,
2013-08-05 10:52:00,72.8,67.7,30.01,ESE,109,0.0,0.0,84,0.00,CLR,,0.02,WeatherDisplay:10.37,2013-08-05 15:52:00,
2013-08-05 10:58:00,72.9,68.1,30.01,ESE,109,0.0,0.0,85,0.00,CLR,,0.02,WeatherDisplay:10.37,2013-08-05 15:58:00,
2013-08-05 11:03:00,72.8,67.7,30.01,ESE,109,0.0,0.0,84,0.00,CLR,,0.02,WeatherDisplay:10.37,2013-08-05 16:03:00,
2013-08-05 11:08:00,72.8,68.0,30.01,SE,128,0.0,0.0,85,0.00,CLR,,0.02,WeatherDisplay:10.37,2013-08-05 16:08:00,
2013-08-05 11:13:00,72.8,68.0,30.01,SE,128,0.0,0.0,85,0.00,CLR,,0.02,WeatherDisplay:10.37,2013-08-05 16:13:00,
2013-08-05 11:18:00,72.8,67.7,30.00,SE,128,0.0,0.0,84,0.00,CLR,,0.02,WeatherDisplay:10.37,2013-08-05 16:18:00,
2013-08-05 11:23:00,72.7,67.9,30.00,SE,128,0.0,0.0,85,0.00,CLR,,0.02,WeatherDisplay:10.37,2013-08-05 16:23:00,
2013-08-05 11:29:00,72.5,67.7,30.00,SE,128,0.0,0.0,85,0.01,RA,,0.03,WeatherDisplay:10.37,2013-08-05 16:29:00,
2013-08-05 11:34:00,72.3,67.9,30.01,SW,232,0.0,0.0,86,0.01,RA,,0.04,WeatherDisplay:10.37,2013-08-05 16:34:00,
2013-08-05 11:39:00,72.1,67.7,30.00,SW,232,0.0,0.0,86,0.02,RA,,0.04,WeatherDisplay:10.37,2013-08-05 16:39:00,
2013-08-05 11:44:00,71.7,67.3,30.00,NW,325,0.0,0.0,86,0.02,RA,,0.04,WeatherDisplay:10.37,2013-08-05 16:44:00,
2013-08-05 11:49:00,71.5,67.4,30.00,NW,325,0.0,0.0,87,0.02,CLR,,0.04,WeatherDisplay:10.37,2013-08-05 16:49:00,
2013-08-05 11:55:00,71.3,67.2,30.00,NW,324,0.0,0.0,87,0.00,RA,,0.05,WeatherDisplay:10.37,2013-08-05 16:55:00,
2013-08-05 11:59:00,71.0,67.3,30.00,NW,323,0.0,0.0,88,0.03,RA,,0.05,WeatherDisplay:10.37,2013-08-05 16:59:00,
2013-08-05 12:05:00,70.7,67.0,30.00,NW,324,0.0,0.0,88,0.00,CLR,,0.05,WeatherDisplay:10.37,2013-08-05 17:05:00,
2013-08-05 12:10:00,70.4,66.7,30.00,NW,325,0.0,0.0,88,0.00,CLR,,0.05,WeatherDisplay:10.37,2013-08-05 17:10:00,
2013-08-05 12:14:00,70.2,66.8,30.00,NW,325,0.0,0.0,89,0.01,RA,,0.07,WeatherDisplay:10.37,2013-08-05 17:14:00,
2013-08-05 12:20:00,70.0,66.6,30.00,NNW,329,0.0,0.0,89,0.06,RA,,0.08,WeatherDisplay:10.37,2013-08-05 17:20:00,
2013-08-05 12:25:00,69.9,66.8,30.00,NNW,329,0.0,0.0,90,0.00,RA,,0.09,WeatherDisplay:10.37,2013-08-05 17:25:00,
2013-08-05 12:29:00,69.7,66.6,30.00,NNW,339,0.0,0.0,90,0.00,RA,,0.09,WeatherDisplay:10.37,2013-08-05 17:29:00,
2013-08-05 12:35:00,69.5,66.4,30.00,North,9,0.0,0.0,90,0.00,CLR,,0.09,WeatherDisplay:10.37,2013-08-05 17:35:00,
2013-08-05 12:40:00,69.2,66.1,30.00,NNE,25,0.0,0.0,90,0.00,RA,,0.10,WeatherDisplay:10.37,2013-08-05 17:40:00,
2013-08-05 12:45:00,68.8,65.7,30.00,NNE,25,0.0,0.0,90,0.06,RA,,0.10,WeatherDisplay:10.37,2013-08-05 17:45:00,
2013-08-05 12:49:00,68.7,66.0,29.99,NNE,25,0.0,0.0,91,0.00,RA,,0.12,WeatherDisplay:10.37,2013-08-05 17:49:00,
2013-08-05 12:55:00,68.6,66.2,29.99,NNE,25,0.0,0.0,92,0.00,RA,,0.13,WeatherDisplay:10.37,2013-08-05 17:55:00,
2013-08-05 13:00:00,68.4,66.0,30.00,NNE,25,0.0,0.0,92,0.10,RA,,0.15,WeatherDisplay:10.37,2013-08-05 18:00:00,
2013-08-05 13:05:00,68.2,65.8,30.00,NNE,25,0.0,0.0,92,0.00,RA,,0.17,WeatherDisplay:10.37,2013-08-05 18:05:00,
2013-08-05 13:10:00,68.0,65.6,30.00,NNE,25,0.0,0.0,92,0.14,RA,,0.20,WeatherDisplay:10.37,2013-08-05 18:10:00,
2013-08-05 13:15:00,67.7,65.3,30.00,NNE,25,0.0,0.0,92,0.01,RA,,0.22,WeatherDisplay:10.37,2013-08-05 18:15:00,
2013-08-05 13:20:00,67.5,65.1,30.00,NNE,25,0.0,0.0,92,0.15,RA,,0.24,WeatherDisplay:10.37,2013-08-05 18:20:00,
2013-08-05 13:25:00,67.3,64.9,29.99,NNE,26,0.0,0.0,92,0.01,RA,,0.26,WeatherDisplay:10.37,2013-08-05 18:25:00,
2013-08-05 13:30:00,67.1,64.7,29.99,NNE,33,0.0,0.0,92,0.18,RA,,0.27,WeatherDisplay:10.37,2013-08-05 18:30:00,
2013-08-05 13:35:00,67.1,65.0,29.99,NNE,33,0.0,0.0,93,0.19,RA,,0.28,WeatherDisplay:10.37,2013-08-05 18:35:00,
2013-08-05 13:39:00,67.1,65.0,29.99,NNE,33,0.0,0.0,93,0.18,RA,,0.28,WeatherDisplay:10.37,2013-08-05 18:39:00,
2013-08-05 13:44:00,67.1,65.0,29.98,ENE,58,0.0,0.0,93,0.19,RA,,0.29,WeatherDisplay:10.37,2013-08-05 18:44:00,
2013-08-05 13:50:00,67.3,65.5,29.98,ENE,58,0.0,0.0,94,0.17,RA,,0.29,WeatherDisplay:10.37,2013-08-05 18:50:00,
2013-08-05 13:55:00,67.5,65.7,29.98,ENE,58,0.0,0.0,94,0.17,RA,,0.30,WeatherDisplay:10.37,2013-08-05 18:55:00,
2013-08-05 14:00:00,67.6,65.8,29.98,ENE,61,0.0,0.0,94,0.00,RA,,0.30,WeatherDisplay:10.37,2013-08-05 19:00:00,
2013-08-05 14:05:00,67.8,66.0,29.97,ESE,122,0.0,0.0,94,0.13,,,0.30,WeatherDisplay:10.37,2013-08-05 19:05:00,
2013-08-05 14:10:00,67.9,66.1,29.97,ESE,111,0.0,0.0,94,0.00,CLR,,0.30,WeatherDisplay:10.37,2013-08-05 19:10:00,
2013-08-05 14:15:00,67.8,66.0,29.98,ESE,109,0.0,0.0,94,0.00,CLR,,0.30,WeatherDisplay:10.37,2013-08-05 19:15:00,
2013-08-05 14:20:00,68.0,66.2,29.97,ESE,113,0.0,0.0,94,0.07,CLR,,0.30,WeatherDisplay:10.37,2013-08-05 19:20:00,
2013-08-05 14:25:00,68.1,66.3,29.97,ESE,113,0.0,0.0,94,0.05,CLR,,0.30,WeatherDisplay:10.37,2013-08-05 19:25:00,
2013-08-05 14:30:00,68.1,66.3,29.97,ESE,116,0.0,0.0,94,0.00,CLR,,0.30,WeatherDisplay:10.37,2013-08-05 19:30:00,
2013-08-05 14:35:00,68.0,66.2,29.97,ESE,121,0.0,0.0,94,0.00,CLR,,0.30,WeatherDisplay:10.37,2013-08-05 19:35:00,
2013-08-05 14:40:00,68.0,66.2,29.97,ESE,118,0.0,0.0,94,0.00,CLR,,0.30,WeatherDisplay:10.37,2013-08-05 19:40:00,
2013-08-05 14:45:00,68.0,66.2,29.96,ESE,119,4.0,4.0,94,0.01,CLR,,0.30,WeatherDisplay:10.37,2013-08-05 19:45:00,
2013-08-05 14:50:00,68.1,66.6,29.96,SE,132,1.1,1.1,95,0.01,CLR,,0.30,WeatherDisplay:10.37,2013-08-05 19:50:00,
2013-08-05 14:55:00,68.3,66.8,29.96,ESE,115,0.0,0.0,95,0.00,CLR,,0.30,WeatherDisplay:10.37,2013-08-05 19:55:00,
2013-08-05 15:00:00,68.4,66.6,29.96,SE,126,3.0,3.0,94,0.00,CLR,,0.30,WeatherDisplay:10.37,2013-08-05 20:00:00,
2013-08-05 15:05:00,68.3,66.5,29.95,ESE,118,0.0,0.0,94,0.00,CLR,,0.30,WeatherDisplay:10.37,2013-08-05 20:05:00,
2013-08-05 15:11:00,68.5,66.7,29.94,ESE,109,1.1,1.1,94,0.00,CLR,,0.30,WeatherDisplay:10.37,2013-08-05 20:11:00,
2013-08-05 15:16:00,68.6,66.8,29.94,East,85,2.3,0.0,94,0.00,CLR,,0.30,WeatherDisplay:10.37,2013-08-05 20:16:00,
2013-08-05 15:21:00,68.8,67.3,29.94,ESE,106,2.3,2.3,95,0.00,CLR,,0.30,WeatherDisplay:10.37,2013-08-05 20:21:00,
2013-08-05 15:26:00,69.0,67.5,29.94,NE,46,3.0,3.0,95,0.00,CLR,,0.30,WeatherDisplay:10.37,2013-08-05 20:26:00,
2013-08-05 15:31:00,69.0,67.5,29.93,ESE,108,1.1,0.0,95,0.00,CLR,,0.30,WeatherDisplay:10.37,2013-08-05 20:31:00,
2013-08-05 15:36:00,69.2,67.7,29.93,ESE,120,0.0,1.1,95,0.00,CLR,,0.30,WeatherDisplay:10.37,2013-08-05 20:36:00,
2013-08-05 15:42:00,69.3,67.8,29.93,SE,126,0.0,0.0,95,0.00,CLR,,0.30,WeatherDisplay:10.37,2013-08-05 20:42:00,
2013-08-05 15:47:00,69.4,67.9,29.92,ESE,109,0.0,0.0,95,0.00,CLR,,0.30,WeatherDisplay:10.37,2013-08-05 20:47:00,
2013-08-05 15:52:00,69.3,67.5,29.92,East,99,2.3,2.3,94,0.00,CLR,,0.30,WeatherDisplay:10.37,2013-08-05 20:52:00,
2013-08-05 15:57:00,69.3,67.5,29.92,ESE,118,1.1,1.1,94,0.00,CLR,,0.30,WeatherDisplay:10.37,2013-08-05 20:57:00,
2013-08-05 16:02:00,69.3,67.5,29.92,SE,124,1.1,1.1,94,0.00,CLR,,0.30,WeatherDisplay:10.37,2013-08-05 21:02:00,
2013-08-05 16:08:00,69.4,67.6,29.92,East,84,3.5,3.5,94,0.00,CLR,,0.30,WeatherDisplay:10.37,2013-08-05 21:08:00,
2013-08-05 16:13:00,69.3,67.2,29.92,SE,134,2.3,2.3,93,0.00,CLR,,0.30,WeatherDisplay:10.37,2013-08-05 21:13:00,
2013-08-05 16:18:00,69.4,67.3,29.92,ESE,116,3.5,3.5,93,0.00,CLR,,0.30,WeatherDisplay:10.37,2013-08-05 21:18:00,
2013-08-05 16:23:00,69.6,67.5,29.92,East,82,3.5,3.5,93,0.00,CLR,,0.30,WeatherDisplay:10.37,2013-08-05 21:23:00,
2013-08-05 16:28:00,69.8,67.7,29.92,East,88,0.0,0.0,93,0.00,CLR,,0.30,WeatherDisplay:10.37,2013-08-05 21:28:00,
2013-08-05 16:33:00,70.0,67.9,29.92,ENE,73,0.0,0.0,93,0.00,CLR,,0.30,WeatherDisplay:10.37,2013-08-05 21:33:00,
2013-08-05 16:38:00,70.0,67.6,29.92,ESE,110,1.1,1.1,92,0.00,CLR,,0.30,WeatherDisplay:10.37,2013-08-05 21:38:00,
2013-08-05 16:43:00,69.9,67.5,29.92,East,96,0.0,0.0,92,0.00,CLR,,0.30,WeatherDisplay:10.37,2013-08-05 21:43:00,
2013-08-05 16:48:00,69.9,67.2,29.92,ESE,119,1.1,0.0,91,0.00,CLR,,0.30,WeatherDisplay:10.37,2013-08-05 21:48:00,
2013-08-05 16:53:00,69.9,67.2,29.91,ESE,111,0.0,0.1,91,0.00,CLR,,0.30,WeatherDisplay:10.37,2013-08-05 21:53:00,
2013-08-05 16:59:00,70.2,67.4,29.91,East,93,2.0,2.0,91,0.00,CLR,,0.30,WeatherDisplay:10.37,2013-08-05 21:59:00,
2013-08-05 17:04:00,70.3,67.5,29.91,ESE,116,3.5,3.5,91,0.00,CLR,,0.30,WeatherDisplay:10.37,2013-08-05 22:04:00,
2013-08-05 17:09:00,70.4,67.6,29.90,NNE,28,3.5,0.0,91,0.00,CLR,,0.30,WeatherDisplay:10.37,2013-08-05 22:09:00,
2013-08-05 17:14:00,70.7,67.9,29.90,North,5,0.0,0.0,91,0.00,CLR,,0.30,WeatherDisplay:10.37,2013-08-05 22:14:00,
2013-08-05 17:19:00,70.7,67.6,29.90,East,101,3.5,3.5,90,0.00,CLR,,0.30,WeatherDisplay:10.37,2013-08-05 22:19:00,
2013-08-05 17:24:00,70.8,67.7,29.90,ESE,109,0.0,0.0,90,0.00,CLR,,0.30,WeatherDisplay:10.37,2013-08-05 22:24:00,
2013-08-05 17:30:00,71.0,67.9,29.90,ESE,123,1.1,1.1,90,0.00,CLR,,0.30,WeatherDisplay:10.37,2013-08-05 22:30:00,
2013-08-05 17:35:00,71.0,67.6,29.90,ESE,115,2.0,0.0,89,0.00,CLR,,0.30,WeatherDisplay:10.37,2013-08-05 22:35:00,
2013-08-05 17:40:00,70.9,67.5,29.89,East,91,1.1,1.1,89,0.00,CLR,,0.30,WeatherDisplay:10.37,2013-08-05 22:40:00,
2013-08-05 17:45:00,70.9,67.5,29.89,ESE,105,0.0,2.0,89,0.00,CLR,,0.30,WeatherDisplay:10.37,2013-08-05 22:45:00,
2013-08-05 17:50:00,70.9,67.5,29.89,East,82,1.1,0.0,89,0.00,CLR,,0.30,WeatherDisplay:10.37,2013-08-05 22:50:00,
2013-08-05 17:55:00,71.1,68.0,29.89,East,82,0.0,0.0,90,0.00,CLR,,0.30,WeatherDisplay:10.37,2013-08-05 22:55:00,
2013-08-05 18:00:00,71.0,67.9,29.89,East,84,0.0,3.0,90,0.00,CLR,,0.30,WeatherDisplay:10.37,2013-08-05 23:00:00,
2013-08-05 18:05:00,71.0,67.9,29.88,East,97,0.0,4.0,90,0.00,CLR,,0.30,WeatherDisplay:10.37,2013-08-05 23:05:00,
2013-08-05 18:10:00,71.0,67.6,29.88,East,82,1.1,1.1,89,0.00,CLR,,0.30,WeatherDisplay:10.37,2013-08-05 23:10:00,
2013-08-05 18:15:00,71.1,68.0,29.88,East,87,0.0,1.0,90,0.00,CLR,,0.30,WeatherDisplay:10.37,2013-08-05 23:15:00,
2013-08-05 18:20:00,71.0,67.6,29.88,ESE,105,2.3,2.3,89,0.00,CLR,,0.30,WeatherDisplay:10.37,2013-08-05 23:20:00,
2013-08-05 18:25:00,70.9,67.5,29.88,ESE,103,0.0,3.0,89,0.00,CLR,,0.30,WeatherDisplay:10.37,2013-08-05 23:25:00,
2013-08-05 18:30:00,70.9,67.1,29.88,ESE,109,0.0,3.0,88,0.00,CLR,,0.30,WeatherDisplay:10.37,2013-08-05 23:30:00,
2013-08-05 18:35:00,70.9,67.5,29.88,ESE,117,0.0,0.0,89,0.00,CLR,,0.30,WeatherDisplay:10.37,2013-08-05 23:35:00,
2013-08-05 18:40:00,71.0,67.6,29.88,ESE,117,0.0,0.0,89,0.00,CLR,,0.30,WeatherDisplay:10.37,2013-08-05 23:40:00,
2013-08-05 18:45:00,71.0,67.9,29.88,East,86,0.0,0.0,90,0.00,CLR,,0.30,WeatherDisplay:10.37,2013-08-05 23:45:00,
2013-08-05 18:50:00,70.8,67.4,29.88,ESE,114,0.0,0.0,89,0.00,CLR,,0.30,WeatherDisplay:10.37,2013-08-05 23:50:00,
2013-08-05 18:55:00,70.8,67.4,29.88,ESE,114,0.0,0.0,89,0.00,CLR,,0.30,WeatherDisplay:10.37,2013-08-05 23:55:00,
2013-08-05 19:00:00,70.7,67.3,29.88,ESE,114,0.0,0.0,89,0.00,CLR,,0.30,WeatherDisplay:10.37,2013-08-06 00:00:00,
2013-08-05 19:05:00,70.7,67.3,29.88,ESE,123,0.0,0.0,89,0.00,CLR,,0.30,WeatherDisplay:10.37,2013-08-06 00:05:00,
2013-08-05 19:10:00,70.6,67.2,29.87,ESE,110,3.5,0.0,89,0.00,CLR,,0.30,WeatherDisplay:10.37,2013-08-06 00:10:00,
2013-08-05 19:16:00,70.5,67.1,29.87,ESE,121,0.0,0.0,89,0.00,CLR,,0.30,WeatherDisplay:10.37,2013-08-06 00:16:00,
2013-08-05 19:21:00,70.4,67.0,29.87,ESE,107,0.0,0.0,89,0.00,CLR,,0.30,WeatherDisplay:10.37,2013-08-06 00:21:00,
2013-08-05 19:26:00,70.4,67.0,29.87,ESE,103,0.0,0.0,89,0.00,CLR,,0.30,WeatherDisplay:10.37,2013-08-06 00:26:00,
2013-08-05 19:31:00,70.3,67.2,29.87,ESE,119,0.0,0.0,90,0.00,CLR,,0.30,WeatherDisplay:10.37,2013-08-06 00:31:00,
2013-08-05 19:36:00,70.3,67.2,29.88,ESE,107,0.0,0.0,90,0.00,CLR,,0.30,WeatherDisplay:10.37,2013-08-06 00:36:00,
2013-08-05 19:41:00,70.3,67.5,29.88,East,93,0.0,0.0,91,0.00,CLR,,0.30,WeatherDisplay:10.37,2013-08-06 00:41:00,
2013-08-05 19:47:00,70.2,67.1,29.88,East,95,1.1,1.1,90,0.00,CLR,,0.30,WeatherDisplay:10.37,2013-08-06 00:47:00,
2013-08-05 19:52:00,70.2,67.4,29.88,ESE,108,0.0,0.0,91,0.00,CLR,,0.30,WeatherDisplay:10.37,2013-08-06 00:52:00,
2013-08-05 19:57:00,70.1,67.3,29.88,ESE,107,0.0,0.0,91,0.00,CLR,,0.30,WeatherDisplay:10.37,2013-08-06 00:57:00,
2013-08-05 20:02:00,70.1,67.3,29.88,East,92,1.1,1.1,91,0.00,CLR,,0.30,WeatherDisplay:10.37,2013-08-06 01:02:00,
2013-08-05 20:07:00,70.1,67.3,29.89,ESE,103,0.0,0.0,91,0.00,CLR,,0.30,WeatherDisplay:10.37,2013-08-06 01:07:00,
2013-08-05 20:12:00,70.1,67.7,29.88,East,100,1.1,1.1,92,0.00,CLR,,0.30,WeatherDisplay:10.37,2013-08-06 01:12:00,
2013-08-05 20:17:00,70.1,67.7,29.89,ESE,120,0.0,0.0,92,0.00,CLR,,0.30,WeatherDisplay:10.37,2013-08-06 01:17:00,
2013-08-05 20:23:00,70.1,67.7,29.89,ESE,112,0.0,0.0,92,0.00,CLR,,0.30,WeatherDisplay:10.37,2013-08-06 01:23:00,
2013-08-05 20:28:00,70.1,67.7,29.89,ESE,112,0.0,0.0,92,0.00,CLR,,0.30,WeatherDisplay:10.37,2013-08-06 01:28:00,
2013-08-05 20:34:00,70.0,67.6,29.89,SE,137,0.0,0.0,92,0.00,CLR,,0.30,WeatherDisplay:10.37,2013-08-06 01:34:00,
2013-08-05 20:39:00,70.0,67.6,29.89,ESE,107,0.0,0.0,92,0.00,CLR,,0.30,WeatherDisplay:10.37,2013-08-06 01:39:00,
2013-08-05 20:44:00,70.1,67.7,29.89,ESE,113,0.0,0.0,92,0.00,CLR,,0.30,WeatherDisplay:10.37,2013-08-06 01:44:00,
2013-08-05 20:49:00,70.0,67.6,29.89,SE,128,0.0,0.0,92,0.00,CLR,,0.30,WeatherDisplay:10.37,2013-08-06 01:49:00,
2013-08-05 20:54:00,70.1,67.7,29.89,ESE,115,0.0,0.0,92,0.00,CLR,,0.30,WeatherDisplay:10.37,2013-08-06 01:54:00,
2013-08-05 20:59:00,70.1,68.0,29.89,ESE,119,0.0,0.0,93,0.00,CLR,,0.30,WeatherDisplay:10.37,2013-08-06 01:59:00,
2013-08-05 21:04:00,70.1,68.0,29.89,East,84,0.0,0.0,93,0.00,CLR,,0.30,WeatherDisplay:10.37,2013-08-06 02:04:00,
2013-08-05 21:09:00,70.1,68.0,29.89,ENE,75,0.0,0.0,93,0.00,CLR,,0.30,WeatherDisplay:10.37,2013-08-06 02:09:00,
2013-08-05 21:14:00,70.1,68.0,29.89,ESE,104,0.0,0.0,93,0.00,CLR,,0.30,WeatherDisplay:10.37,2013-08-06 02:14:00,
2013-08-05 21:19:00,70.2,68.1,29.89,East,99,0.0,0.0,93,0.00,CLR,,0.30,WeatherDisplay:10.37,2013-08-06 02:19:00,
2013-08-05 21:24:00,70.1,68.0,29.89,NE,51,4.6,0.0,93,0.00,CLR,,0.30,WeatherDisplay:10.37,2013-08-06 02:24:00,
2013-08-05 21:29:00,70.1,68.0,29.89,ENE,73,1.1,0.0,93,0.00,CLR,,0.30,WeatherDisplay:10.37,2013-08-06 02:29:00,
2013-08-05 21:35:00,70.1,68.3,29.89,East,80,0.0,0.0,94,0.00,CLR,,0.30,WeatherDisplay:10.37,2013-08-06 02:35:00,
2013-08-05 21:40:00,70.1,68.3,29.90,ESE,121,0.0,0.0,94,0.00,CLR,,0.30,WeatherDisplay:10.37,2013-08-06 02:40:00,
2013-08-05 21:45:00,70.1,68.3,29.90,ENE,63,0.0,0.0,94,0.00,CLR,,0.30,WeatherDisplay:10.37,2013-08-06 02:45:00,
2013-08-05 21:50:00,70.0,68.2,29.90,ENE,63,0.0,0.0,94,0.00,CLR,,0.30,WeatherDisplay:10.37,2013-08-06 02:50:00,
2013-08-05 21:55:00,70.1,68.3,29.90,ESE,107,0.0,0.0,94,0.00,CLR,,0.30,WeatherDisplay:10.37,2013-08-06 02:55:00,
2013-08-05 22:00:00,70.1,68.3,29.90,ESE,108,0.0,0.0,94,0.00,CLR,,0.30,WeatherDisplay:10.37,2013-08-06 03:00:00,
2013-08-05 22:06:00,70.1,68.3,29.90,East,100,0.0,0.0,94,0.00,CLR,,0.30,WeatherDisplay:10.37,2013-08-06 03:06:00,
2013-08-05 22:11:00,70.1,68.3,29.89,East,92,0.0,0.0,94,0.00,CLR,,0.30,WeatherDisplay:10.37,2013-08-06 03:11:00,
2013-08-05 22:16:00,70.1,68.3,29.89,East,101,2.3,2.3,94,0.00,CLR,,0.30,WeatherDisplay:10.37,2013-08-06 03:16:00,
2013-08-05 22:21:00,70.1,68.3,29.89,East,94,0.0,0.0,94,0.00,CLR,,0.30,WeatherDisplay:10.37,2013-08-06 03:21:00,
2013-08-05 22:26:00,70.1,68.3,29.89,ESE,109,1.1,1.1,94,0.00,CLR,,0.30,WeatherDisplay:10.37,2013-08-06 03:26:00,
2013-08-05 22:31:00,70.1,68.6,29.89,ESE,108,0.0,0.0,95,0.00,CLR,,0.30,WeatherDisplay:10.37,2013-08-06 03:31:00,
2013-08-05 22:37:00,70.2,68.7,29.89,ESE,108,0.0,0.0,95,0.00,CLR,,0.30,WeatherDisplay:10.37,2013-08-06 03:37:00,
2013-08-05 22:42:00,70.2,68.7,29.89,ESE,112,0.0,0.0,95,0.00,CLR,,0.30,WeatherDisplay:10.37,2013-08-06 03:42:00,
2013-08-05 22:47:00,70.2,68.7,29.89,ENE,65,0.0,0.0,95,0.00,CLR,,0.30,WeatherDisplay:10.37,2013-08-06 03:47:00,
2013-08-05 22:52:00,70.2,68.7,29.89,East,80,1.1,0.0,95,0.00,CLR,,0.30,WeatherDisplay:10.37,2013-08-06 03:52:00,
2013-08-05 22:57:00,70.2,68.7,29.88,ESE,112,0.0,0.0,95,0.00,CLR,,0.30,WeatherDisplay:10.37,2013-08-06 03:57:00,
2013-08-05 23:01:00,70.3,68.8,29.88,East,82,0.0,0.1,95,0.00,CLR,,0.30,WeatherDisplay:10.37,2013-08-06 04:01:00,
2013-08-05 23:06:00,70.3,68.8,29.88,ESE,114,1.0,1.0,95,0.00,CLR,,0.30,WeatherDisplay:10.37,2013-08-06 04:06:00,
2013-08-05 23:11:00,70.3,68.8,29.88,East,82,1.1,0.0,95,0.00,CLR,,0.30,WeatherDisplay:10.37,2013-08-06 04:11:00,
2013-08-05 23:16:00,70.3,68.8,29.88,East,96,0.0,0.0,95,0.00,CLR,,0.30,WeatherDisplay:10.37,2013-08-06 04:16:00,
2013-08-05 23:21:00,70.3,68.8,29.88,NE,55,0.0,0.0,95,0.00,CLR,,0.30,WeatherDisplay:10.37,2013-08-06 04:21:00,
2013-08-05 23:26:00,70.3,69.1,29.87,East,91,0.0,0.0,96,0.00,CLR,,0.30,WeatherDisplay:10.37,2013-08-06 04:26:00,
2013-08-05 23:31:00,70.3,69.1,29.87,East,81,0.0,0.1,96,0.00,CLR,,0.30,WeatherDisplay:10.37,2013-08-06 04:31:00,
2013-08-05 23:36:00,70.3,69.1,29.87,ESE,105,0.0,0.0,96,0.00,CLR,,0.30,WeatherDisplay:10.37,2013-08-06 04:36:00,
2013-08-05 23:41:00,70.3,69.1,29.87,East,93,0.0,0.3,96,0.00,CLR,,0.30,WeatherDisplay:10.37,2013-08-06 04:41:00,
2013-08-05 23:46:00,70.3,69.1,29.87,NE,50,0.0,0.0,96,0.00,CLR,,0.30,WeatherDisplay:10.37,2013-08-06 04:46:00,
2013-08-05 23:51:00,70.3,69.1,29.87,East,101,0.0,0.0,96,0.00,CLR,,0.30,WeatherDisplay:10.37,2013-08-06 04:51:00,
2013-08-05 23:56:00,70.3,69.1,29.87,East,101,0.0,0.0,96,0.00,CLR,,0.30,WeatherDisplay:10.37,2013-08-06 04:56:00,